This is the latest recevied weather packets stored in our database for station/object SIILIN. If no packets are shown the sender has not sent any weather packets the latest 10 day(s).
| Time | Temp. | Humidity | Pressure | Rain* | Wind** | Luminosity | Snow |
|---|---|---|---|---|---|---|---|
| 1777847232 | 6.11° C | 50% | 1007.8 hPa | - | - | - | - |
| 1777846032 | 6.67° C | 46% | 1008 hPa | - | - | - | - |
| 1777844832 | 6.67° C | 44% | 1008 hPa | - | - | - | - |
| 1777843631 | 7.22° C | 40% | 1008 hPa | - | - | - | - |
| 1777842432 | 7.78° C | 41% | 1008.1 hPa | - | - | - | - |
| 1777841232 | 8.33° C | 40% | 1007.9 hPa | - | - | - | - |
| 1777840031 | 8.33° C | 47% | 1008 hPa | - | - | - | - |
| 1777838831 | 8.89° C | 39% | 1008 hPa | - | - | - | - |
| 1777837631 | 9.44° C | 41% | 1007.9 hPa | - | - | - | - |
| 1777836431 | 9.44° C | 41% | 1007.8 hPa | - | - | - | - |
| 1777835231 | 9.44° C | 42% | 1007.7 hPa | - | - | - | - |
| 1777834031 | 10° C | 40% | 1007.7 hPa | - | - | - | - |
| 1777832831 | 10° C | 40% | 1007.6 hPa | - | - | - | - |
| 1777831631 | 10.56° C | 36% | 1007.4 hPa | - | - | - | - |
| 1777830431 | 10.56° C | 37% | 1007.3 hPa | - | - | - | - |
| 1777829237 | 11.11° C | 33% | 1007.1 hPa | - | - | - | - |
| 1777828031 | 11.67° C | 31% | 1007.1 hPa | - | - | - | - |
| 1777826831 | 10° C | 48% | 1007.2 hPa | - | - | - | - |
| 1777825630 | 12.22° C | 31% | 1007.1 hPa | - | - | - | - |
| 1777824431 | 12.22° C | 35% | 1007.1 hPa | - | - | - | - |
| 1777823230 | 12.22° C | 35% | 1007.2 hPa | - | - | - | - |
| 1777822030 | 11.67° C | 38% | 1007.3 hPa | - | - | - | - |
| 1777820830 | 12.22° C | 33% | 1007.2 hPa | - | - | - | - |
| 1777819630 | 12.78° C | 36% | 1007.4 hPa | - | - | - | - |
| 1777818430 | 11.67° C | 43% | 1007.5 hPa | - | - | - | - |
* Rain since midnight (hover to see other rain measurements)
** Current wind speed in m/s (hover to see current wind gust speed)